Date String (YYYY-MM-DD hh:mm:ss) UTC,Instrument flags,absolute air pressure of the measurement (hPa),sample flow rate (lpm),inlet stack bypass flow (lpm),air temperature of the measurement (°C),ambient temperature measured by the external sensor (°C),aerosol sample conditioner tube jacket temperature (°C),OPC LED temperature (°C),internal box temperature (°C),relative humidity of the measurement (%),span deviation,mass concentration of particles derived from Lorenz-Mie calculation of OPC scattering (μg/m³),mass concentration of particles derived from Lorenz-Mie calculation of OPC scattering (μg/m³),mass concentration of particles derived from Lorenz-Mie calculation of OPC scattering (μg/m³)
DateTimeUTC,F1_M11,P_M11,Q1_M11,Q2_M11,T1_M11,T2_M11,T3_M11,T4_M11,T5_M11,U1_M11,ZSPAN_M11,X0_M11,X2_M11,X1_M11
2024-03-13 23:00:00,SystemResetWarning,0820.3,5.00,000.00,021.6,020.8,000.0,030.2,023.4,25.3,0000.0,0006.28,0003.70,0003.25
2024-03-13 23:01:00,SystemResetWarning,0820.3,5.00,000.00,021.6,020.8,000.0,030.2,023.4,25.3,0000.0,0006.31,0003.71,0003.25
2024-03-13 23:02:00,SystemResetWarning,0820.3,4.99,000.00,021.6,020.8,000.0,030.2,023.4,25.3,0000.0,0006.13,0003.68,0003.26
2024-03-13 23:03:00,SystemResetWarning,0820.3,5.00,000.00,021.6,020.8,000.0,030.2,023.4,25.2,0000.0,0006.02,0003.64,0003.26
2024-03-13 23:04:00,SystemResetWarning,0820.3,5.00,000.00,021.6,020.8,000.0,030.2,023.4,24.9,0000.0,0005.97,0003.62,0003.26
2024-03-13 23:05:00,SystemResetWarning,0820.3,5.00,000.00,021.6,020.8,000.0,030.2,023.4,24.8,0000.0,0005.90,0003.62,0003.27
2024-03-13 23:06:00,SystemResetWarning,0820.4,5.00,000.00,021.6,020.8,000.0,030.2,023.4,24.8,0000.0,0006.98,0003.67,0003.28
2024-03-13 23:07:00,SystemResetWarning,0820.5,5.00,000.00,021.6,020.8,000.0,030.2,023.4,24.8,0000.0,0007.57,0003.69,0003.30
2024-03-13 23:08:00,SystemResetWarning,0820.5,5.00,000.00,021.6,020.8,000.0,030.1,023.4,24.8,0000.0,0007.55,0003.71,0003.32
2024-03-13 23:09:00,SystemResetWarning,0820.4,5.00,000.00,021.6,020.8,000.0,030.2,023.4,24.7,0000.0,0007.61,0003.74,0003.32
2024-03-13 23:10:00,SystemResetWarning,0820.9,5.00,000.00,021.6,020.8,000.0,030.1,023.4,24.8,0000.0,0007.92,0003.75,0003.33
2024-03-13 23:11:00,SystemResetWarning,0821.0,4.99,000.00,021.6,020.8,000.0,030.1,023.4,24.4,0000.0,0007.92,0003.75,0003.33
2024-03-13 23:12:00,SystemResetWarning,0821.0,5.00,000.00,021.6,020.9,000.0,030.1,023.4,24.3,0000.0,0007.88,0003.75,0003.34
2024-03-13 23:13:00,SystemResetWarning,0820.7,5.00,000.00,021.6,020.9,000.0,030.1,023.4,24.2,0000.0,0008.24,0003.75,0003.33
2024-03-13 23:14:00,SystemResetWarning,0820.7,5.00,000.00,021.6,020.9,000.0,030.1,023.4,24.3,0000.0,0008.37,0003.80,0003.34
2024-03-13 23:15:00,SystemResetWarning,0820.5,5.00,000.00,021.6,020.9,000.0,030.1,023.4,24.3,0000.0,0008.43,0003.84,0003.37
2024-03-13 23:16:00,SystemResetWarning,0820.6,5.00,000.00,021.6,020.9,000.0,030.1,023.4,24.3,0000.0,0008.55,0003.89,0003.40
2024-03-13 23:17:00,SystemResetWarning,0820.6,5.00,000.00,021.6,020.9,000.0,030.1,023.4,24.0,0000.0,0008.09,0003.88,0003.42
2024-03-13 23:18:00,SystemResetWarning,0820.6,5.00,000.00,021.6,020.9,000.0,030.1,023.4,24.0,0000.0,0007.63,0003.93,0003.46
2024-03-13 23:19:00,SystemResetWarning,0820.5,5.00,000.00,021.6,020.9,000.0,030.1,023.4,24.0,0000.0,0007.66,0003.96,0003.48
2024-03-13 23:20:00,SystemResetWarning,0820.5,5.00,000.00,021.6,020.9,000.0,030.1,023.4,24.2,0000.0,0007.61,0003.96,0003.49
2024-03-13 23:21:00,SystemResetWarning,0820.6,5.01,000.00,021.6,020.9,000.0,030.1,023.4,24.4,0000.0,0007.35,0003.97,0003.50
2024-03-13 23:22:00,SystemResetWarning,0820.6,5.00,000.00,021.6,020.9,000.0,030.1,023.4,24.5,0000.0,0007.21,0003.95,0003.50
2024-03-13 23:23:00,SystemResetWarning,0820.6,5.00,000.00,021.6,020.9,000.0,030.1,023.4,24.5,0000.0,0007.23,0003.95,0003.49
2024-03-13 23:24:00,SystemResetWarning,0820.8,5.00,000.00,021.6,020.9,000.0,030.1,023.4,24.5,0000.0,0006.83,0003.94,0003.49
2024-03-13 23:25:00,SystemResetWarning,0820.7,4.99,000.00,021.6,020.8,000.0,030.1,023.4,24.6,0000.0,0006.49,0003.92,0003.48
2024-03-13 23:26:00,SystemResetWarning,0820.7,5.00,000.00,021.6,020.8,000.0,030.1,023.4,24.7,0000.0,0006.44,0003.89,0003.46
2024-03-13 23:27:00,SystemResetWarning,0820.8,4.99,000.00,021.6,020.8,000.0,030.1,023.4,24.7,0000.0,0006.20,0003.82,0003.43
2024-03-13 23:28:00,SystemResetWarning,0820.8,5.00,000.00,021.6,020.8,000.0,030.1,023.4,24.7,0000.0,0006.17,0003.80,0003.40
2024-03-13 23:29:00,SystemResetWarning,0820.8,5.01,000.00,021.6,020.8,000.0,030.1,023.4,24.7,0000.0,0006.02,0003.74,0003.36
2024-03-13 23:30:00,SystemResetWarning,0820.9,5.01,000.00,021.6,020.8,000.0,030.1,023.4,24.7,0000.0,0006.00,0003.70,0003.31
2024-03-13 23:31:00,SystemResetWarning,0820.9,5.00,000.00,021.6,020.8,000.0,030.1,023.4,24.7,0000.0,0006.02,0003.68,0003.28
2024-03-13 23:32:00,SystemResetWarning,0820.9,5.00,000.00,021.6,020.8,000.0,030.1,023.4,24.9,0000.0,0005.93,0003.63,0003.24
2024-03-13 23:33:00,SystemResetWarning,0820.7,5.00,000.00,021.6,020.8,000.0,030.1,023.4,25.0,0000.0,0005.94,0003.61,0003.22
2024-03-13 23:34:00,SystemResetWarning,0820.5,5.00,000.00,021.6,020.8,000.0,030.1,023.4,25.1,0000.0,0006.01,0003.60,0003.21
2024-03-13 23:35:00,SystemResetWarning,0820.5,5.00,000.00,021.6,020.8,000.0,030.1,023.4,25.0,0000.0,0005.99,0003.60,0003.20
2024-03-13 23:36:00,SystemResetWarning,0820.5,5.00,000.00,021.6,020.7,000.0,030.1,023.4,25.0,0000.0,0006.03,0003.59,0003.18
2024-03-13 23:37:00,SystemResetWarning,0820.5,5.00,000.00,021.6,020.7,000.0,030.1,023.4,25.0,0000.0,0005.89,0003.57,0003.16
2024-03-13 23:38:00,SystemResetWarning,0820.6,5.00,000.00,021.6,020.7,000.0,030.1,023.4,25.1,0000.0,0005.84,0003.58,0003.15
2024-03-13 23:39:00,SystemResetWarning,0820.6,5.00,000.00,021.5,020.7,000.0,030.1,023.3,25.2,0000.0,0005.87,0003.58,0003.15
2024-03-13 23:40:00,SystemResetWarning,0820.7,5.00,000.00,021.5,020.7,000.0,030.1,023.3,25.4,0000.0,0005.93,0003.60,0003.15
2024-03-13 23:41:00,SystemResetWarning,0820.7,5.00,000.00,021.5,020.7,000.0,030.1,023.3,25.5,0000.0,0006.07,0003.62,0003.16
2024-03-13 23:42:00,SystemResetWarning,0820.7,4.99,000.00,021.5,020.7,000.0,030.1,023.3,25.5,0000.0,0006.50,0003.66,0003.18
2024-03-13 23:43:00,SystemResetWarning,0820.7,5.00,000.00,021.5,020.7,000.0,030.1,023.3,25.6,0000.0,0007.13,0003.67,0003.20
2024-03-13 23:44:00,SystemResetWarning,0820.8,5.01,000.00,021.5,020.7,000.0,030.1,023.4,25.7,0000.0,0007.41,0003.70,0003.23
2024-03-13 23:45:00,SystemResetWarning,0820.7,5.01,000.00,021.5,020.7,000.0,030.1,023.4,25.9,0000.0,0007.41,0003.72,0003.24
2024-03-13 23:46:00,SystemResetWarning,0820.7,5.01,000.00,021.5,020.7,000.0,030.1,023.3,25.9,0000.0,0007.36,0003.72,0003.26
2024-03-13 23:47:00,SystemResetWarning,0820.8,5.00,000.00,021.5,020.7,000.0,030.1,023.4,26.0,0000.0,0007.38,0003.75,0003.29
2024-03-13 23:48:00,SystemResetWarning,0820.8,5.00,000.00,021.5,020.8,000.0,030.1,023.3,26.1,0000.0,0007.44,0003.78,0003.33
2024-03-13 23:49:00,SystemResetWarning,0820.8,5.00,000.00,021.5,020.8,000.0,030.1,023.3,26.1,0000.0,0007.59,0003.83,0003.36
2024-03-13 23:50:00,SystemResetWarning,0820.8,4.99,000.00,021.5,020.8,000.0,030.1,023.3,26.1,0000.0,0007.70,0003.87,0003.38
2024-03-13 23:51:00,SystemResetWarning,0820.8,5.00,000.00,021.5,020.8,000.0,030.1,023.3,26.1,0000.0,0007.71,0003.87,0003.40
2024-03-13 23:52:00,SystemResetWarning,0820.8,5.01,000.00,021.5,020.8,000.0,030.1,023.3,26.1,0000.0,0007.64,0003.86,0003.42
2024-03-13 23:53:00,SystemResetWarning,0820.9,5.00,000.00,021.5,020.8,000.0,030.1,023.3,26.2,0000.0,0007.50,0003.85,0003.43
2024-03-13 23:54:00,SystemResetWarning,0820.9,5.00,000.00,021.5,020.8,000.0,030.1,023.3,26.3,0000.0,0006.97,0003.86,0003.44
2024-03-13 23:55:00,SystemResetWarning,0820.9,5.00,000.00,021.5,020.8,000.0,030.1,023.3,26.2,0000.0,0006.64,0003.85,0003.45
2024-03-13 23:56:00,SystemResetWarning,0820.9,5.00,000.00,021.5,020.7,000.0,030.1,023.3,26.2,0000.0,0006.45,0003.84,0003.46
2024-03-13 23:57:00,SystemResetWarning,0820.8,4.99,000.00,021.5,020.7,000.0,030.1,023.3,26.2,0000.0,0006.59,0003.89,0003.49
2024-03-13 23:58:00,SystemResetWarning,0821.2,4.99,000.00,021.5,020.7,000.0,030.1,023.3,26.2,0000.0,0006.60,0003.91,0003.52
2024-03-13 23:59:00,SystemResetWarning,0821.0,4.99,000.00,021.5,020.7,000.0,030.1,023.3,26.2,0000.0,0006.69,0003.94,0003.54
